This demonstration page uses our WeatherBlox Daily Observations layout. Learn more.

Hourly Observations for February 6, 2020

Temp ( °F °C ) Dew Point ( °F °C ) Humidity (%) Winds ( mph kmh ) Pressure ( in mb ) Visibility ( mi km ) Precip ( " mm )
12:15 am 00:15 Clear 20 -6.5 12 -11 71 71 SW 7 11 29.91 1013 10 16.0934 0 0
12:35 am 00:35 Clear 20 -6.8 12 -11.1 72 72 SSW 6 9 29.91 1013 10 16.0934 0 0
12:55 am 00:55 Clear 20 -6.6 12 -11.1 71 71 SW 8 13 29.9 1012 10 16.0934 0 0
1:15 am 01:15 Clear 20 -6.9 12 -11.2 72 72 SW 7 11 29.88 1012 10 16.0934 0 0
1:35 am 01:35 Clear 19 -7 12 -11.2 72 72 SW 6 9 29.88 1012 10 16.0934 0 0
1:55 am 01:55 Clear 18 -7.6 11 -11.5 74 74 SW 5 7 29.88 1012 10 16.0934 0 0
2:15 am 02:15 Clear 19 -7.5 12 -11.3 75 75 Calm 29.87 1011 10 16.0934 0 0
2:35 am 02:35 Clear 18 -7.8 11 -11.5 75 75 SW 5 7 29.86 1011 10 16.0934 0 0
2:55 am 02:55 Clear 18 -8 12 -11.1 79 79 Calm 29.85 1011 10 16.0934 0 0
3:15 am 03:15 Clear 18 -7.7 12 -11.1 77 77 W 3 6 29.83 1010 10 16.0934 0 0
3:35 am 03:35 Clear 18 -7.9 12 -11.2 77 77 WSW 5 7 29.83 1010 10 16.0934 0 0
3:55 am 03:55 Clear 17 -8.2 12 -11.2 79 79 W 7 11 29.82 1010 10 16.0934 0 0
4:15 am 04:15 Clear 17 -8.2 12 -11.2 79 79 WSW 6 9 29.81 1010 10 16.0934 0 0
4:35 am 04:35 Clear 16 -9 11 -11.7 81 81 WSW 3 6 29.82 1010 10 16.0934 0 0
4:55 am 04:55 Clear 15 -9.5 11 -11.8 84 84 SW 3 6 29.83 1010 10 16.0934 0 0
5:15 am 05:15 Clear 15 -9.6 11 -11.9 84 84 W 5 7 29.82 1010 10 16.0934 0 0
5:35 am 05:35 Clear 15 -9.5 11 -11.5 86 86 WSW 3 6 29.82 1010 10 16.0934 0 0
5:55 am 05:55 Clear 16 -9.1 11 -11.4 84 84 W 3 6 29.8 1009 10 16.0934 0 0
6:15 am 06:15 Clear 15 -9.4 11 -11.5 85 85 W 6 9 29.81 1009 10 16.0934 0 0
6:35 am 06:35 Clear 16 -8.9 12 -11 85 85 W 5 7 29.8 1009 10 16.0934 0 0
6:55 am 06:55 Clear 16 -8.8 12 -11.1 84 84 W 6 9 29.8 1009 10 16.0934 0 0
7:15 am 07:15 Clear 17 -8.1 13 -10.6 82 82 W 6 9 29.79 1009 10 16.0934 0 0
7:35 am 07:35 Clear 17 -8.4 13 -10.8 83 83 W 5 7 29.8 1009 10 16.0934 0 0
7:55 am 07:55 Sunny 17 -8.1 13 -10.8 81 81 W 7 11 29.79 1009 10 16.0934 0 0
8:15 am 08:15 Sunny 18 -7.6 14 -10.2 82 82 W 5 7 29.79 1009 10 16.0934 0 0
8:35 am 08:35 Sunny 20 -6.8 15 -9.4 82 82 W 5 7 29.78 1008 10 16.0934 0 0
8:55 am 08:55 Sunny 22 -5.6 16 -8.9 78 78 W 5 7 29.77 1008 10 16.0934 0 0
9:15 am 09:15 Sunny 23 -5 17 -8.5 77 77 W 6 9 29.76 1008 10 16.0934 0 0
9:35 am 09:35 Sunny 25 -3.9 19 -7.5 76 76 NW 6 9 29.75 1007 10 16.0934 0 0
9:55 am 09:55 Sunny 27 -2.8 19 -7 73 73 WNW 7 11 29.74 1007 10 16.0934 0 0
10:15 am 10:15 Sunny 29 -1.8 21 -6.1 73 73 WNW 3 6 29.73 1007 10 16.0934 0 0
10:35 am 10:35 Sunny 31 -0.8 21 -6 68 68 NNW 6 9 29.72 1006 10 16.0934 0 0
10:55 am 10:55 Sunny 32 0 21 -5.9 65 65 WNW 5 7 29.7 1006 10 16.0934 0 0
11:15 am 11:15 Sunny 33 0.6 21 -5.9 62 62 WNW 5 7 29.7 1006 10 16.0934 0 0
11:35 am 11:35 Sunny 33 0.8 20 -6.5 59 59 WNW 3 6 29.69 1005 10 16.0934 0 0
11:55 am 11:55 Sunny 36 2.1 20 -6.4 54 54 SW 3 6 29.66 1005 10 16.0934 0 0
12:15 pm 12:15 Sunny 37 2.6 20 -6.5 52 52 W 6 9 29.65 1004 10 16.0934 0 0
12:35 pm 12:35 Sunny 37 3 21 -6.3 51 51 WSW 6 9 29.64 1004 10 16.0934 0 0
12:55 pm 12:55 Sunny 37 3 21 -6.2 51 51 SW 6 9 29.63 1003 10 16.0934 0 0
1:15 pm 13:15 Sunny 38 3.6 20 -6.5 48 48 W 8 13 29.61 1003 10 16.0934 0 0
1:35 pm 13:35 Sunny 40 4.3 21 -6.3 46 46 W 10 17 29.59 1002 10 16.0934 0 0
1:55 pm 13:55 Sunny 41 5.1 20 -6.5 43 43 WNW 10 17 29.58 1002 10 16.0934 0 0
2:15 pm 14:15 Partly Cloudy 42 5.5 21 -6.2 43 43 W 9 15 29.57 1001 10 16.0934 0 0
2:35 pm 14:35 Mostly Cloudy 42 5.5 21 -6.3 43 43 WNW 8 13 29.56 1001 10 16.0934 0 0
2:55 pm 14:55 Partly Cloudy 43 6 21 -6.1 42 42 NW 8 13 29.55 1001 10 16.0934 0 0
3:15 pm 15:15 Sunny 43 6 20 -6.9 39 39 NW 7 11 29.54 1000 10 16.0934 0 0
3:35 pm 15:35 Sunny 43 6 20 -6.4 41 41 WNW 8 13 29.54 1000 10 16.0934 0 0
3:55 pm 15:55 Sunny 42 5.5 21 -6 44 44 WNW 8 13 29.55 1001 10 16.0934 0 0
4:15 pm 16:15 Sunny 42 5.6 21 -6.1 43 43 WNW 9 15 29.55 1001 10 16.0934 0 0
4:35 pm 16:35 Sunny 42 5.5 20 -6.5 42 42 NW 5 7 29.55 1001 10 16.0934 0 0
4:55 pm 16:55 Sunny 42 5.8 21 -6.3 42 42 NW 6 9 29.55 1001 10 16.0934 0 0
5:15 pm 17:15 Sunny 42 5.5 21 -6 44 44 NW 5 7 29.56 1001 10 16.0934 0 0
5:35 pm 17:35 Partly Cloudy 41 5 22 -5.7 46 46 NNW 3 6 29.57 1001 10 16.0934 0 0
5:55 pm 17:55 Mostly Cloudy 40 4.5 22 -5.6 48 48 Calm 29.58 1002 10 16.0934 0 0
6:15 pm 18:15 Mostly Cloudy 38 3.3 21 -6.1 51 51 Calm 29.59 1002 10 16.0934 0 0
6:35 pm 18:35 Partly Cloudy 37 2.6 22 -5.4 56 56 NW 3 6 29.61 1003 10 16.0934 0 0
6:55 pm 18:55 Partly Cloudy 33 0.4 22 -5.6 64 64 WNW 3 6 29.63 1003 10 16.0934 0 0
7:15 pm 19:15 Mostly Cloudy 34 1.2 24 -4.6 66 66 WNW 3 6 29.63 1003 10 16.0934 0 0
7:35 pm 19:35 Mostly Cloudy 34 1.2 23 -4.8 65 65 WNW 3 6 29.63 1003 10 16.0934 0 0
7:55 pm 19:55 Partly Cloudy 33 0.8 23 -5 66 66 NW 3 6 29.64 1004 10 16.0934 0 0
8:15 pm 20:15 Partly Cloudy 33 0.8 23 -5.2 65 65 NW 3 6 29.65 1004 10 16.0934 0 0
8:35 pm 20:35 Mostly Cloudy 33 0.3 22 -5.3 66 66 NNW 7 11 29.65 1004 10 16.0934 0 0
8:55 pm 20:55 Clear 33 0.5 23 -5.2 66 66 NW 7 11 29.66 1004 10 16.0934 0 0
9:15 pm 21:15 Clear 31 -0.5 23 -5.2 71 71 NW 7 11 29.68 1005 10 16.0934 0 0
9:35 pm 21:35 Mostly Cloudy 32 0 24 -4.4 73 73 NW 8 13 29.68 1005 10 16.0934 0 0
9:55 pm 21:55 Mostly Cloudy 33 0.5 24 -4.2 71 71 NNW 10 17 29.69 1005 10 16.0934 0 0
10:15 pm 22:15 Mostly Cloudy 33 0.5 24 -4.2 71 71 NNW 7 11 29.7 1006 10 16.0934 0 0
10:35 pm 22:35 Cloudy 33 0.8 26 -3.3 74 74 NNW 9 15 29.7 1006 10 16.0934 0 0
10:55 pm 22:55 Cloudy 34 1 27 -2.7 77 77 NNW 7 11 29.7 1006 10 16.0934 0 0
11:15 pm 23:15 Cloudy 34 1.2 28 -2 79 79 NNW 8 13 29.71 1006 10 16.0934 0 0
11:35 pm 23:35 Cloudy 34 1.2 29 -1.5 82 82 N 8 13 29.71 1006 10 16.0934 0 0
11:55 pm 23:55 Cloudy 34 1.1 29 -1.5 83 83 NNW 9 15 29.72 1007 10 16.0934 0 0

Powered by AerisWeather